User: anonymous
Location: Bakersfield
(35.3730°N, 119.0180°W)
Time: 07:12:08
(UTC-07:00)
Language:

Cosmos 1222 Rocket - Orbit

View from above orbital plane
View from above orbital plane
View from above satellite
View from above satellite

Ground track
Ground track

The orbit data is extracted from the following two-line orbital elements,

1 12072U 80093B   14242.09091621  .00026533  00000-0  33241-3 0  2003
2 12072 081.1851 235.5079 0014727 099.5879 260.7038 15.59479498857611
Epoch (UTC): 30 August 2014 02:10:55
Eccentricity: 0.0014727
inclination: 81.1851°
perigee height: 379 km
apogee height: 399 km
right ascension of ascending node: 235.5079°
argument of perigee: 99.5879°
revolutions per day: 15.59479498
mean anomaly at epoch: 260.7038°
orbit number at epoch: 85761

The dashed part of the orbit path shows where the satellite is in the earth's shadow,  

DLR